Location: Sobotiste
(48.7170°N, 17.4000°E)
Time: 22:39:17
(UTC+01:00)

CUBESAT XI-V - Visible Passes

Search period start: 16 March 2026 00:00
Search period end: 26 March 2026 00:00
Orbit: 643 x 664 km, 98.3° (Epoch: 15 March)

Date Brightness Start Highest point End Pass type
(mag) Time Alt. Az. Time Alt. Az. Time Alt. Az.
16 Mar ? 02:08:39 19° NNE 02:08:39 19° NNE 02:10:11 10° N visible
16 Mar ? 03:46:30 12° NW 03:46:30 12° NW 03:46:53 10° NNW visible
17 Mar ? 02:36:21 22° N 02:36:21 22° N 02:38:03 10° N visible
18 Mar ? 01:26:12 14° NE 01:26:12 14° NE 01:27:39 10° NNE visible
18 Mar ? 03:04:03 22° NNW 03:04:03 22° NNW 03:05:41 10° NNW visible
19 Mar ? 01:53:54 21° NNE 01:53:54 21° NNE 01:55:59 10° N visible
19 Mar ? 03:31:44 19° NW 03:31:44 19° NW 03:33:07 10° NNW visible
20 Mar ? 02:21:34 28° NNE 02:21:34 28° NNE 02:23:58 10° N visible
20 Mar ? 03:59:25 14° NW 03:59:25 14° NW 04:00:14 10° NW visible
21 Mar ? 01:11:24 12° NE 01:11:24 12° NE 01:12:54 10° NNE visible
21 Mar ? 02:49:15 32° N 02:49:15 32° N 02:51:43 10° NNW visible
22 Mar ? 01:39:05 19° NE 01:39:05 19° NE 01:41:41 10° NNE visible
22 Mar ? 03:16:55 29° NW 03:16:55 29° NW 03:19:15 10° NNW visible
23 Mar ? 02:06:45 30° NE 02:06:45 30° NE 02:09:48 10° N visible
23 Mar ? 03:44:35 22° NW 03:44:35 22° NW 03:46:32 10° NNW visible
24 Mar ? 02:34:24 43° NNE 02:34:24 43° NNE 02:37:39 10° N visible
24 Mar ? 04:12:15 14° WNW 04:12:15 14° WNW 04:13:24 10° NW visible
25 Mar ? 01:24:13 15° ENE 01:24:37 15° ENE 01:27:11 10° NNE visible
25 Mar ? 03:02:04 47° NNW 03:02:04 47° NNW 03:05:17 10° NNW visible
